Date,TemperatureHighF,TemperatureAvgF,TemperatureLowF,DewpointHighF,DewpointAvgF,DewpointLowF,HumidityHigh,HumidityAvg,HumidityLow,PressureMaxIn,PressureMinIn,WindSpeedMaxMPH,WindSpeedAvgMPH,GustSpeedMaxMPH,PrecipitationSumIn
2013-1-1,24.0,21.6,20.0,-12.0,-97.5,-99.9,22,1,22,0.00,40.00,2,0,6,0.00
2013-1-2,22.0,19.8,19.0,-99.9,-99.9,-99.9,0,0,100,0.00,40.00,2,0,6,0.00
2013-1-3,32.0,19.5,18.0,32.0,-96.6,-99.9,100,2,100,0.00,40.00,1,0,3,0.00
2013-1-4,26.0,22.2,19.0,-99.9,-99.9,-99.9,0,0,100,0.00,40.00,2,0,6,0.00
2013-1-5,25.0,22.4,20.0,-99.9,-99.9,-99.9,0,0,100,0.00,40.00,1,0,2,0.00
2013-1-6,30.0,23.6,18.0,-99.9,-99.9,-99.9,0,0,100,0.00,40.00,3,1,7,0.00
2013-1-7,32.0,28.0,23.0,-99.9,-99.9,-99.9,0,0,100,0.00,40.00,3,1,14,0.00
2013-1-8,32.0,31.2,31.0,-99.9,-99.9,-99.9,0,0,100,0.00,40.00,3,0,14,0.00
2013-1-9,32.0,30.6,29.0,-99.9,-99.9,-99.9,0,0,100,0.00,40.00,2,0,9,0.00
2013-1-10,33.0,26.0,21.0,-99.9,-99.9,-99.9,0,0,100,0.00,40.00,3,1,13,0.00
2013-1-11,22.0,17.0,10.0,-99.9,-99.9,-99.9,0,0,100,0.00,40.00,0,0,2,0.00
2013-1-12,20.0,11.2,7.0,-31.0,-98.2,-99.9,8,0,8,0.00,40.00,1,0,2,0.00
2013-1-13,23.0,11.7,2.0,-99.9,-99.9,-99.9,0,0,100,0.00,40.00,1,0,5,0.00
2013-1-14,36.0,22.5,18.0,31.0,-95.5,-99.9,92,3,92,0.00,40.00,12,2,25,0.00
2013-1-15,28.0,17.3,13.0,-99.9,-99.9,-99.9,0,0,100,0.00,40.00,5,1,9,0.00
2013-1-16,22.0,19.3,15.0,-99.9,-99.9,-99.9,0,0,100,0.00,40.00,2,1,7,0.00
2013-1-17,25.0,20.3,18.0,-99.9,-99.9,-99.9,0,0,100,0.00,40.00,3,1,7,0.00
2013-1-18,23.0,17.8,14.0,-99.9,-99.9,-99.9,0,0,100,0.00,40.00,2,1,5,0.00
2013-1-19,22.0,15.0,9.0,-99.9,-99.9,-99.9,0,0,100,0.00,40.00,1,0,5,0.00
2013-1-20,27.0,16.5,8.0,-99.9,-99.9,-99.9,0,0,100,0.00,40.00,2,0,7,0.00
2013-1-21,21.0,16.7,13.0,-99.9,-99.9,-99.9,0,0,100,0.00,40.00,3,1,8,0.00
2013-1-22,22.0,17.3,12.0,-99.9,-99.9,-99.9,0,0,100,0.00,40.00,1,0,3,0.00
2013-1-23,26.0,21.9,17.0,-99.9,-99.9,-99.9,0,0,100,0.00,40.00,1,0,2,0.00
2013-1-24,24.0,19.9,14.0,-99.9,-99.9,-99.9,0,0,100,0.00,40.00,3,1,7,0.00
2013-1-25,32.0,25.4,21.0,-99.9,-99.9,-99.9,0,0,100,0.00,40.00,2,0,6,0.00
2013-1-26,32.0,27.7,26.0,-99.9,-99.9,-99.9,0,0,100,0.00,40.00,2,1,6,0.00
2013-1-27,33.0,25.6,17.0,-99.9,-99.9,-99.9,0,0,100,0.00,40.00,3,1,8,0.00
2013-1-28,35.0,27.7,22.0,-99.9,-99.9,-99.9,0,0,100,0.00,40.00,6,1,17,0.00
2013-1-29,42.0,37.2,34.0,37.0,-18.2,-99.9,96,51,67,0.00,40.00,8,6,22,0.00
2013-1-31,46.0,38.4,33.0,38.0,-35.5,-99.9,100,35,60,0.00,40.00,3,2,12,0.00